Time,TemperatureF,DewpointF,PressureIn,WindDirection,WindDirectionDegrees,WindSpeedMPH,WindSpeedGustMPH,Humidity,HourlyPrecipIn,Conditions,Clouds,dailyrainin,SoftwareType,DateUTC
2013-06-04 00:02:00,63.3,50.5,29.69,West,270,1.0,2.0,63,0.00,,,0.00,meteohub,2013-06-04 07:02:00,
2013-06-04 00:07:00,63.0,50.2,29.70,West,270,0.0,2.0,63,0.00,,,0.00,meteohub,2013-06-04 07:07:00,
2013-06-04 00:12:00,63.0,50.2,29.69,West,270,1.0,1.0,63,0.00,,,0.00,meteohub,2013-06-04 07:12:00,
2013-06-04 00:17:00,63.0,50.2,29.69,West,270,0.0,1.0,63,0.00,,,0.00,meteohub,2013-06-04 07:17:00,
2013-06-04 00:22:00,62.8,50.0,29.69,West,270,0.0,1.0,63,0.00,,,0.00,meteohub,2013-06-04 07:22:00,
2013-06-04 00:27:00,62.6,50.2,29.69,West,270,0.0,1.0,64,0.00,,,0.00,meteohub,2013-06-04 07:27:00,
2013-06-04 00:32:00,62.4,50.0,29.70,West,270,1.0,0.0,64,0.00,,,0.00,meteohub,2013-06-04 07:32:00,
2013-06-04 00:37:00,62.4,50.0,29.70,West,270,1.0,1.0,64,0.00,,,0.00,meteohub,2013-06-04 07:37:00,
2013-06-04 00:42:00,62.4,50.0,29.70,SW,225,0.0,1.0,64,0.00,,,0.00,meteohub,2013-06-04 07:42:00,
2013-06-04 00:47:00,62.4,50.5,29.70,SW,225,0.0,1.0,65,0.00,,,0.00,meteohub,2013-06-04 07:47:00,
2013-06-04 00:52:00,62.1,49.8,29.70,SW,225,0.0,1.0,64,0.00,,,0.00,meteohub,2013-06-04 07:52:00,
2013-06-04 00:57:00,62.1,50.2,29.70,SW,225,0.0,1.0,65,0.00,,,0.00,meteohub,2013-06-04 07:57:00,
2013-06-04 01:02:00,62.1,50.2,29.70,SW,225,0.0,2.0,65,0.00,,,0.00,meteohub,2013-06-04 08:02:00,
2013-06-04 01:07:00,62.1,50.2,29.70,SW,225,0.0,2.0,65,0.00,,,0.00,meteohub,2013-06-04 08:07:00,
2013-06-04 01:12:00,62.1,50.2,29.70,SW,225,0.0,2.0,65,0.00,,,0.00,meteohub,2013-06-04 08:12:00,
2013-06-04 01:17:00,61.9,50.0,29.70,SW,225,0.0,1.0,65,0.00,,,0.00,meteohub,2013-06-04 08:17:00,
2013-06-04 01:22:00,61.9,50.0,29.70,SW,225,0.0,1.0,65,0.00,,,0.00,meteohub,2013-06-04 08:22:00,
2013-06-04 01:27:00,61.7,49.8,29.70,SW,225,0.0,1.0,65,0.00,,,0.00,meteohub,2013-06-04 08:27:00,
2013-06-04 01:32:00,61.5,50.0,29.70,SW,225,0.0,1.0,66,0.00,,,0.00,meteohub,2013-06-04 08:32:00,
2013-06-04 01:37:00,61.5,50.0,29.70,SW,225,0.0,1.0,66,0.00,,,0.00,meteohub,2013-06-04 08:37:00,
2013-06-04 01:42:00,61.3,49.8,29.70,SW,225,1.0,1.0,66,0.00,,,0.00,meteohub,2013-06-04 08:42:00,
2013-06-04 01:47:00,61.3,49.8,29.70,SW,225,0.0,1.0,66,0.00,,,0.00,meteohub,2013-06-04 08:47:00,
2013-06-04 01:52:00,61.2,49.6,29.70,SW,225,1.0,1.0,66,0.00,,,0.00,meteohub,2013-06-04 08:52:00,
2013-06-04 01:57:00,61.2,49.6,29.70,SW,225,0.0,1.0,66,0.00,,,0.00,meteohub,2013-06-04 08:57:00,
2013-06-04 02:02:00,61.2,49.6,29.70,SW,225,0.0,1.0,66,0.00,,,0.00,meteohub,2013-06-04 09:02:00,
2013-06-04 02:07:00,61.2,49.6,29.70,SW,225,0.0,1.0,66,0.00,,,0.00,meteohub,2013-06-04 09:07:00,
2013-06-04 02:12:00,60.8,49.8,29.70,SW,225,1.0,0.0,67,0.00,,,0.00,meteohub,2013-06-04 09:12:00,
2013-06-04 02:17:00,60.8,49.8,29.70,SW,225,0.0,0.0,67,0.00,,,0.00,meteohub,2013-06-04 09:17:00,
2013-06-04 02:22:00,60.6,49.6,29.70,SW,225,0.0,1.0,67,0.00,,,0.00,meteohub,2013-06-04 09:22:00,
2013-06-04 02:27:00,60.6,50.0,29.70,SW,225,0.0,1.0,68,0.00,,,0.00,meteohub,2013-06-04 09:27:00,
2013-06-04 02:33:00,60.4,49.8,29.71,SW,225,0.0,1.0,68,0.00,,,0.00,meteohub,2013-06-04 09:33:00,
2013-06-04 02:38:00,60.4,49.8,29.70,SW,225,1.0,1.0,68,0.00,,,0.00,meteohub,2013-06-04 09:38:00,
2013-06-04 02:43:00,60.4,50.2,29.70,SW,225,0.0,1.0,69,0.00,,,0.00,meteohub,2013-06-04 09:43:00,
2013-06-04 02:48:00,60.3,49.6,29.71,SW,225,0.0,1.0,68,0.00,,,0.00,meteohub,2013-06-04 09:48:00,
2013-06-04 02:53:00,60.3,49.6,29.70,SW,225,0.0,1.0,68,0.00,,,0.00,meteohub,2013-06-04 09:53:00,
2013-06-04 02:59:00,60.1,49.8,29.70,SW,225,0.0,1.0,69,0.00,,,0.00,meteohub,2013-06-04 09:59:00,
2013-06-04 03:04:00,60.1,49.8,29.70,SW,225,0.0,1.0,69,0.00,,,0.00,meteohub,2013-06-04 10:04:00,
2013-06-04 03:09:00,59.9,49.6,29.70,SW,225,0.0,1.0,69,0.00,,,0.00,meteohub,2013-06-04 10:09:00,
2013-06-04 03:14:00,59.9,49.6,29.70,SW,225,0.0,1.0,69,0.00,,,0.00,meteohub,2013-06-04 10:14:00,
2013-06-04 03:19:00,59.9,50.2,29.70,SW,225,0.0,2.0,70,0.00,,,0.00,meteohub,2013-06-04 10:19:00,
2013-06-04 03:24:00,59.7,50.0,29.70,SW,225,0.0,2.0,70,0.00,,,0.00,meteohub,2013-06-04 10:24:00,
2013-06-04 03:29:00,59.7,50.0,29.71,SW,225,1.0,2.0,70,0.00,,,0.00,meteohub,2013-06-04 10:29:00,
2013-06-04 03:34:00,59.7,50.0,29.72,SW,225,0.0,1.0,70,0.00,,,0.00,meteohub,2013-06-04 10:34:00,
2013-06-04 03:40:00,59.7,50.0,29.72,SW,225,0.0,2.0,70,0.00,,,0.00,meteohub,2013-06-04 10:40:00,
2013-06-04 03:45:00,59.7,50.0,29.72,SW,225,0.0,2.0,70,0.00,,,0.00,meteohub,2013-06-04 10:45:00,
2013-06-04 03:50:00,59.5,49.8,29.72,SW,225,1.0,2.0,70,0.00,,,0.00,meteohub,2013-06-04 10:50:00,
2013-06-04 03:55:00,59.5,49.8,29.73,SW,225,0.0,1.0,70,0.00,,,0.00,meteohub,2013-06-04 10:55:00,
2013-06-04 04:00:00,59.5,49.8,29.73,SW,225,1.0,1.0,70,0.00,,,0.00,meteohub,2013-06-04 11:00:00,
2013-06-04 04:06:00,59.5,49.8,29.73,SW,225,1.0,1.0,70,0.00,,,0.00,meteohub,2013-06-04 11:06:00,
2013-06-04 04:11:00,59.5,50.2,29.73,NE,45,1.0,1.0,71,0.00,,,0.00,meteohub,2013-06-04 11:11:00,
2013-06-04 04:16:00,59.5,50.2,29.73,North,0,1.0,1.0,71,0.00,,,0.00,meteohub,2013-06-04 11:16:00,
2013-06-04 04:21:00,59.5,50.2,29.73,SW,225,2.0,2.0,71,0.00,,,0.00,meteohub,2013-06-04 11:21:00,
2013-06-04 04:27:00,59.4,50.0,29.72,South,180,0.0,2.0,71,0.00,,,0.00,meteohub,2013-06-04 11:27:00,
2013-06-04 04:32:00,59.2,49.8,29.73,West,270,0.0,2.0,71,0.00,,,0.00,meteohub,2013-06-04 11:32:00,
2013-06-04 04:37:00,59.0,49.6,29.73,NE,45,1.0,2.0,71,0.00,,,0.00,meteohub,2013-06-04 11:37:00,
2013-06-04 04:42:00,58.8,49.8,29.73,SE,135,2.0,2.0,72,0.00,,,0.00,meteohub,2013-06-04 11:42:00,
2013-06-04 04:47:00,58.6,49.6,29.73,North,0,1.0,2.0,72,0.00,,,0.00,meteohub,2013-06-04 11:47:00,
2013-06-04 04:52:00,58.5,49.8,29.73,South,180,1.0,2.0,73,0.00,,,0.00,meteohub,2013-06-04 11:52:00,
2013-06-04 04:57:00,58.3,49.6,29.73,SW,225,0.0,2.0,73,0.00,,,0.00,meteohub,2013-06-04 11:57:00,
2013-06-04 05:02:00,58.5,49.8,29.74,South,180,2.0,2.0,73,0.00,,,0.00,meteohub,2013-06-04 12:02:00,
2013-06-04 05:07:00,58.5,50.2,29.74,North,0,1.0,2.0,74,0.00,,,0.00,meteohub,2013-06-04 12:07:00,
2013-06-04 05:12:00,58.5,50.2,29.74,North,0,0.0,2.0,74,0.00,,,0.00,meteohub,2013-06-04 12:12:00,
2013-06-04 05:17:00,58.3,50.0,29.74,North,0,0.0,2.0,74,0.00,,,0.00,meteohub,2013-06-04 12:17:00,
2013-06-04 05:23:00,58.1,49.8,29.74,NE,45,1.0,1.0,74,0.00,,,0.00,meteohub,2013-06-04 12:23:00,
2013-06-04 05:28:00,57.9,49.6,29.74,NE,45,0.0,1.0,74,0.00,,,0.00,meteohub,2013-06-04 12:28:00,
2013-06-04 05:33:00,57.7,49.5,29.74,NE,45,0.0,1.0,74,0.00,,,0.00,meteohub,2013-06-04 12:33:00,
2013-06-04 05:38:00,57.6,49.6,29.74,NE,45,1.0,1.0,75,0.00,,,0.00,meteohub,2013-06-04 12:38:00,
2013-06-04 05:43:00,57.4,49.5,29.75,NE,45,1.0,1.0,75,0.00,,,0.00,meteohub,2013-06-04 12:43:00,
2013-06-04 05:48:00,57.4,49.5,29.75,NE,45,1.0,1.0,75,0.00,,,0.00,meteohub,2013-06-04 12:48:00,
2013-06-04 05:53:00,57.2,49.6,29.75,SE,135,0.0,1.0,76,0.00,,,0.00,meteohub,2013-06-04 12:53:00,
2013-06-04 05:59:00,57.2,49.6,29.75,NW,315,0.0,1.0,76,0.00,,,0.00,meteohub,2013-06-04 12:59:00,
2013-06-04 06:04:00,57.0,49.5,29.75,NW,315,0.0,1.0,76,0.00,,,0.00,meteohub,2013-06-04 13:04:00,
2013-06-04 06:09:00,57.0,49.5,29.75,NW,315,0.0,1.0,76,0.00,,,0.00,meteohub,2013-06-04 13:09:00,
2013-06-04 06:14:00,57.0,49.8,29.75,NW,315,0.0,1.0,77,0.00,,,0.00,meteohub,2013-06-04 13:14:00,
2013-06-04 06:20:00,57.0,49.8,29.75,NW,315,0.0,1.0,77,0.00,,,0.00,meteohub,2013-06-04 13:20:00,
2013-06-04 06:25:00,57.0,49.8,29.76,East,90,0.0,1.0,77,0.00,,,0.00,meteohub,2013-06-04 13:25:00,
2013-06-04 06:30:00,57.2,50.0,29.76,NE,45,2.0,2.0,77,0.00,,,0.00,meteohub,2013-06-04 13:30:00,
2013-06-04 06:35:00,57.6,50.4,29.76,NE,45,2.0,2.0,77,0.00,,,0.00,meteohub,2013-06-04 13:35:00,
2013-06-04 06:40:00,57.7,50.5,29.76,NE,45,1.0,2.0,77,0.00,,,0.00,meteohub,2013-06-04 13:40:00,
2013-06-04 06:45:00,58.1,50.5,29.76,NE,45,0.0,2.0,76,0.00,,,0.00,meteohub,2013-06-04 13:45:00,
2013-06-04 06:50:00,58.3,50.7,29.77,SW,225,0.0,2.0,76,0.00,,,0.00,meteohub,2013-06-04 13:50:00,
2013-06-04 06:55:00,58.6,51.1,29.77,West,270,1.0,2.0,76,0.00,,,0.00,meteohub,2013-06-04 13:55:00,
2013-06-04 07:01:00,59.0,51.1,29.77,SW,225,1.0,2.0,75,0.00,,,0.00,meteohub,2013-06-04 14:01:00,
2013-06-04 07:06:00,59.4,51.4,29.77,SW,225,1.0,2.0,75,0.00,,,0.00,meteohub,2013-06-04 14:06:00,
2013-06-04 07:11:00,59.7,51.8,29.77,South,180,1.0,2.0,75,0.00,,,0.00,meteohub,2013-06-04 14:11:00,
2013-06-04 07:16:00,59.9,52.0,29.78,West,270,1.0,2.0,75,0.00,,,0.00,meteohub,2013-06-04 14:16:00,
2013-06-04 07:21:00,60.3,52.0,29.78,West,270,1.0,2.0,74,0.00,,,0.00,meteohub,2013-06-04 14:21:00,
2013-06-04 07:26:00,60.8,52.9,29.78,NE,45,0.0,2.0,75,0.00,,,0.00,meteohub,2013-06-04 14:26:00,
2013-06-04 07:31:00,61.2,53.2,29.78,NE,45,2.0,2.0,75,0.00,,,0.00,meteohub,2013-06-04 14:31:00,
2013-06-04 07:36:00,61.9,53.8,29.78,West,270,4.0,4.0,75,0.00,,,0.00,meteohub,2013-06-04 14:36:00,
2013-06-04 07:42:00,62.2,54.1,29.79,NE,45,2.0,4.0,75,0.00,,,0.00,meteohub,2013-06-04 14:42:00,
2013-06-04 07:47:00,62.8,54.3,29.79,SW,225,0.0,4.0,74,0.00,,,0.00,meteohub,2013-06-04 14:47:00,
2013-06-04 07:52:00,63.0,54.5,29.79,NW,315,1.0,4.0,74,0.00,,,0.00,meteohub,2013-06-04 14:52:00,
2013-06-04 07:57:00,63.3,54.9,29.79,East,90,2.0,2.0,74,0.00,,,0.00,meteohub,2013-06-04 14:57:00,
2013-06-04 08:02:00,63.7,54.9,29.79,North,0,2.0,2.0,73,0.00,,,0.00,meteohub,2013-06-04 15:02:00,
2013-06-04 08:07:00,64.0,55.2,29.79,East,90,3.0,3.0,73,0.00,,,0.00,meteohub,2013-06-04 15:07:00,
2013-06-04 08:12:00,64.8,55.2,29.79,North,0,2.0,3.0,71,0.00,,,0.00,meteohub,2013-06-04 15:12:00,
2013-06-04 08:17:00,65.1,55.0,29.79,East,90,2.0,3.0,70,0.00,,,0.00,meteohub,2013-06-04 15:17:00,
2013-06-04 08:22:00,65.8,55.4,29.80,North,0,2.0,5.0,69,0.00,,,0.00,meteohub,2013-06-04 15:22:00,
2013-06-04 08:27:00,66.2,55.4,29.80,West,270,2.0,5.0,68,0.00,,,0.00,meteohub,2013-06-04 15:27:00,
2013-06-04 08:32:00,67.1,55.8,29.80,North,0,2.0,5.0,67,0.00,,,0.00,meteohub,2013-06-04 15:32:00,
2013-06-04 08:38:00,67.6,55.9,29.81,North,0,2.0,3.0,66,0.00,,,0.00,meteohub,2013-06-04 15:38:00,
2013-06-04 08:43:00,68.2,55.9,29.81,East,90,2.0,4.0,65,0.00,,,0.00,meteohub,2013-06-04 15:43:00,
2013-06-04 08:48:00,68.7,56.1,29.81,South,180,2.0,4.0,64,0.00,,,0.00,meteohub,2013-06-04 15:48:00,
2013-06-04 08:53:00,69.4,56.3,29.81,NE,45,2.0,4.0,63,0.00,,,0.00,meteohub,2013-06-04 15:53:00,
2013-06-04 08:58:00,70.0,55.9,29.81,North,0,2.0,4.0,61,0.00,,,0.00,meteohub,2013-06-04 15:58:00,
2013-06-04 09:03:00,70.5,55.9,29.81,South,180,2.0,4.0,60,0.00,,,0.00,meteohub,2013-06-04 16:03:00,
2013-06-04 09:09:00,71.1,55.9,29.81,NE,45,2.0,4.0,59,0.00,,,0.00,meteohub,2013-06-04 16:09:00,
2013-06-04 09:14:00,71.6,56.1,29.81,NE,45,2.0,4.0,58,0.00,,,0.00,meteohub,2013-06-04 16:14:00,
2013-06-04 09:19:00,72.1,56.5,29.81,North,0,2.0,4.0,58,0.00,,,0.00,meteohub,2013-06-04 16:19:00,
2013-06-04 09:24:00,72.9,56.3,29.81,North,0,2.0,3.0,56,0.00,,,0.00,meteohub,2013-06-04 16:24:00,
2013-06-04 09:29:00,73.4,56.7,29.81,NE,45,3.0,3.0,56,0.00,,,0.00,meteohub,2013-06-04 16:29:00,
2013-06-04 09:34:00,73.9,56.8,29.81,NE,45,2.0,3.0,55,0.00,,,0.00,meteohub,2013-06-04 16:34:00,
2013-06-04 09:40:00,74.3,56.7,29.81,NE,45,2.0,3.0,54,0.00,,,0.00,meteohub,2013-06-04 16:40:00,
2013-06-04 09:45:00,74.7,56.5,29.81,North,0,1.0,3.0,53,0.00,,,0.00,meteohub,2013-06-04 16:45:00,
2013-06-04 09:50:00,75.7,57.4,29.81,NE,45,1.0,3.0,53,0.00,,,0.00,meteohub,2013-06-04 16:50:00,
2013-06-04 09:55:00,76.5,57.0,29.81,North,0,2.0,2.0,51,0.00,,,0.00,meteohub,2013-06-04 16:55:00,
2013-06-04 10:00:00,77.0,57.0,29.81,NW,315,2.0,2.0,50,0.00,,,0.00,meteohub,2013-06-04 17:00:00,
2013-06-04 10:05:00,77.5,56.3,29.81,NE,45,2.0,3.0,48,0.00,,,0.00,meteohub,2013-06-04 17:05:00,
2013-06-04 10:10:00,77.5,56.3,29.81,North,0,1.0,3.0,48,0.00,,,0.00,meteohub,2013-06-04 17:10:00,
2013-06-04 10:16:00,78.1,56.8,29.81,NE,45,1.0,3.0,48,0.00,,,0.00,meteohub,2013-06-04 17:16:00,
2013-06-04 10:21:00,78.8,56.3,29.81,East,90,2.0,3.0,46,0.00,,,0.00,meteohub,2013-06-04 17:21:00,
2013-06-04 10:26:00,79.3,56.8,29.81,NE,45,2.0,3.0,46,0.00,,,0.00,meteohub,2013-06-04 17:26:00,
2013-06-04 10:31:00,79.9,56.7,29.81,South,180,3.0,3.0,45,0.00,,,0.00,meteohub,2013-06-04 17:31:00,
2013-06-04 10:36:00,80.1,56.8,29.80,NE,45,2.0,3.0,45,0.00,,,0.00,meteohub,2013-06-04 17:36:00,
2013-06-04 10:41:00,80.2,56.3,29.80,West,270,2.0,3.0,44,0.00,,,0.00,meteohub,2013-06-04 17:41:00,
2013-06-04 10:46:00,80.4,56.5,29.81,North,0,2.0,4.0,44,0.00,,,0.00,meteohub,2013-06-04 17:46:00,
2013-06-04 10:52:00,81.0,57.0,29.81,West,270,3.0,4.0,44,0.00,,,0.00,meteohub,2013-06-04 17:52:00,
2013-06-04 10:57:00,81.5,56.8,29.80,East,90,2.0,4.0,43,0.00,,,0.00,meteohub,2013-06-04 17:57:00,
2013-06-04 11:02:00,82.0,57.4,29.80,SE,135,2.0,4.0,43,0.00,,,0.00,meteohub,2013-06-04 18:02:00,
2013-06-04 11:07:00,82.8,57.4,29.80,West,270,4.0,4.0,42,0.00,,,0.00,meteohub,2013-06-04 18:07:00,
2013-06-04 11:12:00,83.1,57.0,29.80,SE,135,4.0,4.0,41,0.00,,,0.00,meteohub,2013-06-04 18:12:00,
2013-06-04 11:17:00,83.7,58.1,29.80,South,180,2.0,4.0,42,0.00,,,0.00,meteohub,2013-06-04 18:17:00,
2013-06-04 11:22:00,84.9,57.2,29.80,SW,225,2.0,4.0,39,0.00,,,0.00,meteohub,2013-06-04 18:22:00,
2013-06-04 11:27:00,85.5,57.7,29.80,South,180,2.0,4.0,39,0.00,,,0.00,meteohub,2013-06-04 18:27:00,
2013-06-04 11:32:00,85.8,57.2,29.80,NW,315,2.0,4.0,38,0.00,,,0.00,meteohub,2013-06-04 18:32:00,
2013-06-04 11:37:00,86.2,57.6,29.80,South,180,2.0,3.0,38,0.00,,,0.00,meteohub,2013-06-04 18:37:00,
2013-06-04 11:42:00,86.5,57.2,29.80,West,270,2.0,3.0,37,0.00,,,0.00,meteohub,2013-06-04 18:42:00,
2013-06-04 11:48:00,86.9,56.7,29.80,NW,315,2.0,4.0,36,0.00,,,0.00,meteohub,2013-06-04 18:48:00,
2013-06-04 11:53:00,87.1,56.8,29.80,West,270,3.0,4.0,36,0.00,,,0.00,meteohub,2013-06-04 18:53:00,
2013-06-04 11:58:00,87.1,56.8,29.80,SW,225,3.0,4.0,36,0.00,,,0.00,meteohub,2013-06-04 18:58:00,
2013-06-04 12:03:00,87.3,57.0,29.80,South,180,3.0,3.0,36,0.00,,,0.00,meteohub,2013-06-04 19:03:00,
2013-06-04 12:08:00,87.6,57.4,29.80,SW,225,3.0,5.0,36,0.00,,,0.00,meteohub,2013-06-04 19:08:00,
2013-06-04 12:13:00,88.0,57.7,29.79,SW,225,2.0,5.0,36,0.00,,,0.00,meteohub,2013-06-04 19:13:00,
2013-06-04 12:18:00,88.5,58.1,29.79,North,0,2.0,4.0,36,0.00,,,0.00,meteohub,2013-06-04 19:18:00,
2013-06-04 12:24:00,88.9,57.7,29.79,SW,225,3.0,4.0,35,0.00,,,0.00,meteohub,2013-06-04 19:24:00,
2013-06-04 12:29:00,89.1,57.0,29.79,South,180,3.0,4.0,34,0.00,,,0.00,meteohub,2013-06-04 19:29:00,
2013-06-04 12:34:00,89.4,57.4,29.79,South,180,2.0,4.0,34,0.00,,,0.00,meteohub,2013-06-04 19:34:00,
2013-06-04 12:39:00,89.6,57.6,29.79,NE,45,2.0,4.0,34,0.00,,,0.00,meteohub,2013-06-04 19:39:00,
2013-06-04 12:44:00,90.0,57.0,29.79,West,270,2.0,4.0,33,0.00,,,0.00,meteohub,2013-06-04 19:44:00,
2013-06-04 12:50:00,89.8,57.7,29.79,North,0,2.0,4.0,34,0.00,,,0.00,meteohub,2013-06-04 19:50:00,
2013-06-04 12:55:00,90.0,57.7,29.79,East,90,3.0,3.0,34,0.00,,,0.00,meteohub,2013-06-04 19:55:00,
2013-06-04 13:00:00,90.1,57.2,29.79,South,180,2.0,3.0,33,0.00,,,0.00,meteohub,2013-06-04 20:00:00,
2013-06-04 13:05:00,90.9,57.7,29.78,South,180,2.0,3.0,33,0.00,,,0.00,meteohub,2013-06-04 20:05:00,
2013-06-04 13:10:00,91.0,57.0,29.78,West,270,2.0,3.0,32,0.00,,,0.00,meteohub,2013-06-04 20:10:00,
2013-06-04 13:15:00,91.4,57.4,29.78,West,270,2.0,3.0,32,0.00,,,0.00,meteohub,2013-06-04 20:15:00,
2013-06-04 13:21:00,91.8,58.6,29.79,South,180,2.0,2.0,33,0.00,,,0.00,meteohub,2013-06-04 20:21:00,
2013-06-04 13:26:00,92.1,58.1,29.78,SW,225,3.0,6.0,32,0.00,,,0.00,meteohub,2013-06-04 20:26:00,
2013-06-04 13:31:00,92.1,58.1,29.78,NE,45,2.0,6.0,32,0.00,,,0.00,meteohub,2013-06-04 20:31:00,
2013-06-04 13:36:00,92.1,58.1,29.78,NW,315,6.0,6.0,32,0.00,,,0.00,meteohub,2013-06-04 20:36:00,
2013-06-04 13:41:00,92.5,58.3,29.78,South,180,3.0,6.0,32,0.00,,,0.00,meteohub,2013-06-04 20:41:00,
2013-06-04 13:47:00,92.5,58.3,29.78,NW,315,2.0,6.0,32,0.00,,,0.00,meteohub,2013-06-04 20:47:00,
2013-06-04 13:52:00,92.5,58.3,29.78,West,270,2.0,6.0,32,0.00,,,0.00,meteohub,2013-06-04 20:52:00,
2013-06-04 13:57:00,92.8,58.6,29.78,SW,225,2.0,4.0,32,0.00,,,0.00,meteohub,2013-06-04 20:57:00,
2013-06-04 14:02:00,93.0,58.8,29.78,South,180,2.0,3.0,32,0.00,,,0.00,meteohub,2013-06-04 21:02:00,
2013-06-04 14:07:00,93.2,58.1,29.77,SE,135,2.0,3.0,31,0.00,,,0.00,meteohub,2013-06-04 21:07:00,
2013-06-04 14:13:00,93.6,58.5,29.77,West,270,2.0,3.0,31,0.00,,,0.00,meteohub,2013-06-04 21:13:00,
2013-06-04 14:18:00,93.7,58.5,29.77,NW,315,2.0,2.0,31,0.00,,,0.00,meteohub,2013-06-04 21:18:00,
2013-06-04 14:23:00,93.9,57.7,29.77,NW,315,2.0,3.0,30,0.00,,,0.00,meteohub,2013-06-04 21:23:00,
2013-06-04 14:28:00,94.1,58.8,29.77,SW,225,2.0,4.0,31,0.00,,,0.00,meteohub,2013-06-04 21:28:00,
2013-06-04 14:33:00,94.5,58.3,29.77,West,270,2.0,4.0,30,0.00,,,0.00,meteohub,2013-06-04 21:33:00,
2013-06-04 14:38:00,94.5,58.3,29.77,NE,45,3.0,4.0,30,0.00,,,0.00,meteohub,2013-06-04 21:38:00,
2013-06-04 14:44:00,94.5,59.2,29.77,South,180,2.0,4.0,31,0.00,,,0.00,meteohub,2013-06-04 21:44:00,
2013-06-04 14:49:00,94.5,59.2,29.77,North,0,2.0,4.0,31,0.00,,,0.00,meteohub,2013-06-04 21:49:00,
2013-06-04 14:54:00,94.8,58.5,29.76,South,180,2.0,3.0,30,0.00,,,0.00,meteohub,2013-06-04 21:54:00,
2013-06-04 14:59:00,94.8,58.5,29.76,SW,225,2.0,3.0,30,0.00,,,0.00,meteohub,2013-06-04 21:59:00,
2013-06-04 15:04:00,94.6,58.5,29.76,West,270,2.0,4.0,30,0.00,,,0.00,meteohub,2013-06-04 22:04:00,
2013-06-04 15:09:00,94.6,58.5,29.76,SW,225,2.0,4.0,30,0.00,,,0.00,meteohub,2013-06-04 22:09:00,
2013-06-04 15:14:00,94.6,57.4,29.76,SE,135,3.0,4.0,29,0.00,,,0.00,meteohub,2013-06-04 22:14:00,
2013-06-04 15:20:00,94.5,58.3,29.76,NW,315,2.0,4.0,30,0.00,,,0.00,meteohub,2013-06-04 22:20:00,
2013-06-04 15:25:00,94.6,58.5,29.76,South,180,2.0,4.0,30,0.00,,,0.00,meteohub,2013-06-04 22:25:00,
2013-06-04 15:30:00,94.8,58.5,29.76,West,270,2.0,4.0,30,0.00,,,0.00,meteohub,2013-06-04 22:30:00,
2013-06-04 15:35:00,95.0,57.7,29.76,West,270,2.0,4.0,29,0.00,,,0.00,meteohub,2013-06-04 22:35:00,
2013-06-04 15:40:00,95.0,57.7,29.76,SW,225,2.0,4.0,29,0.00,,,0.00,meteohub,2013-06-04 22:40:00,
2013-06-04 15:45:00,95.0,57.7,29.76,NW,315,2.0,4.0,29,0.00,,,0.00,meteohub,2013-06-04 22:45:00,
2013-06-04 15:50:00,95.0,57.7,29.75,SE,135,2.0,4.0,29,0.00,,,0.00,meteohub,2013-06-04 22:50:00,
2013-06-04 15:55:00,94.8,57.6,29.75,SW,225,2.0,4.0,29,0.00,,,0.00,meteohub,2013-06-04 22:55:00,
2013-06-04 16:00:00,94.6,57.4,29.75,SW,225,3.0,4.0,29,0.00,,,0.00,meteohub,2013-06-04 23:00:00,
2013-06-04 16:06:00,94.3,57.2,29.75,NW,315,2.0,3.0,29,0.00,,,0.00,meteohub,2013-06-04 23:06:00,
2013-06-04 16:11:00,94.1,57.0,29.75,SW,225,2.0,3.0,29,0.00,,,0.00,meteohub,2013-06-04 23:11:00,
2013-06-04 16:16:00,93.9,56.8,29.75,South,180,5.0,5.0,29,0.00,,,0.00,meteohub,2013-06-04 23:16:00,
2013-06-04 16:21:00,93.6,56.5,29.74,SW,225,2.0,5.0,29,0.00,,,0.00,meteohub,2013-06-04 23:21:00,
2013-06-04 16:26:00,93.2,56.3,29.74,SW,225,3.0,5.0,29,0.00,,,0.00,meteohub,2013-06-04 23:26:00,
2013-06-04 16:31:00,92.7,55.8,29.74,SW,225,2.0,5.0,29,0.00,,,0.00,meteohub,2013-06-04 23:31:00,
2013-06-04 16:37:00,92.3,56.3,29.74,SW,225,2.0,4.0,30,0.00,,,0.00,meteohub,2013-06-04 23:37:00,
2013-06-04 16:42:00,92.1,55.2,29.74,West,270,2.0,4.0,29,0.00,,,0.00,meteohub,2013-06-04 23:42:00,
2013-06-04 16:47:00,91.9,56.1,29.74,West,270,2.0,4.0,30,0.00,,,0.00,meteohub,2013-06-04 23:47:00,
2013-06-04 16:52:00,91.6,55.8,29.74,NW,315,2.0,4.0,30,0.00,,,0.00,meteohub,2013-06-04 23:52:00,
2013-06-04 16:57:00,91.4,56.5,29.74,West,270,2.0,3.0,31,0.00,,,0.00,meteohub,2013-06-04 23:57:00,
2013-06-04 17:02:00,91.2,55.4,29.74,South,180,2.0,3.0,30,0.00,,,0.00,meteohub,2013-06-05 00:02:00,
2013-06-04 17:07:00,90.5,54.9,29.75,WNW,293,3.0,3.0,30,0.00,,,0.00,meteohub,2013-06-05 00:07:00,
2013-06-04 17:12:00,89.6,55.0,29.74,SW,225,2.0,3.0,31,0.00,,,0.00,meteohub,2013-06-05 00:12:00,
2013-06-04 17:17:00,89.1,55.4,29.75,West,270,2.0,5.0,32,0.00,,,0.00,meteohub,2013-06-05 00:17:00,
2013-06-04 17:22:00,88.3,54.7,29.75,SW,225,2.0,5.0,32,0.00,,,0.00,meteohub,2013-06-05 00:22:00,
2013-06-04 17:27:00,87.8,54.3,29.74,South,180,2.0,5.0,32,0.00,,,0.00,meteohub,2013-06-05 00:27:00,
2013-06-04 17:32:00,87.3,54.7,29.74,SW,225,4.0,4.0,33,0.00,,,0.00,meteohub,2013-06-05 00:32:00,
2013-06-04 17:37:00,86.7,55.0,29.75,NW,315,2.0,4.0,34,0.00,,,0.00,meteohub,2013-06-05 00:37:00,
2013-06-04 17:42:00,86.4,55.4,29.74,South,180,2.0,4.0,35,0.00,,,0.00,meteohub,2013-06-05 00:42:00,
2013-06-04 17:47:00,86.2,55.4,29.75,West,270,2.0,4.0,35,0.00,,,0.00,meteohub,2013-06-05 00:47:00,
2013-06-04 17:52:00,85.6,54.9,29.74,East,90,2.0,3.0,35,0.00,,,0.00,meteohub,2013-06-05 00:52:00,
2013-06-04 17:57:00,85.1,54.3,29.75,NE,45,2.0,3.0,35,0.00,,,0.00,meteohub,2013-06-05 00:57:00,
2013-06-04 18:02:00,84.7,54.9,29.74,North,0,2.0,4.0,36,0.00,,,0.00,meteohub,2013-06-05 01:02:00,
2013-06-04 18:07:00,84.0,54.1,29.75,SW,225,3.0,4.0,36,0.00,,,0.00,meteohub,2013-06-05 01:07:00,
2013-06-04 18:12:00,83.5,53.8,29.75,West,270,2.0,3.0,36,0.00,,,0.00,meteohub,2013-06-05 01:12:00,
2013-06-04 18:18:00,82.9,54.0,29.74,South,180,2.0,4.0,37,0.00,,,0.00,meteohub,2013-06-05 01:18:00,
2013-06-04 18:23:00,82.6,54.3,29.74,East,90,1.0,4.0,38,0.00,,,0.00,meteohub,2013-06-05 01:23:00,
2013-06-04 18:28:00,82.0,54.0,29.74,South,180,3.0,4.0,38,0.00,,,0.00,meteohub,2013-06-05 01:28:00,
2013-06-04 18:33:00,81.5,53.4,29.74,West,270,3.0,4.0,38,0.00,,,0.00,meteohub,2013-06-05 01:33:00,
2013-06-04 18:38:00,81.0,53.6,29.74,South,180,2.0,4.0,39,0.00,,,0.00,meteohub,2013-06-05 01:38:00,
2013-06-04 18:43:00,80.4,54.0,29.74,SW,225,2.0,4.0,40,0.00,,,0.00,meteohub,2013-06-05 01:43:00,
2013-06-04 18:48:00,80.1,53.6,29.75,SW,225,2.0,4.0,40,0.00,,,0.00,meteohub,2013-06-05 01:48:00,
2013-06-04 18:54:00,79.3,53.6,29.74,East,90,3.0,3.0,41,0.00,,,0.00,meteohub,2013-06-05 01:54:00,
2013-06-04 18:59:00,79.0,53.2,29.74,SE,135,2.0,4.0,41,0.00,,,0.00,meteohub,2013-06-05 01:59:00,
2013-06-04 19:04:00,78.6,53.6,29.74,SE,135,2.0,4.0,42,0.00,,,0.00,meteohub,2013-06-05 02:04:00,
2013-06-04 19:09:00,78.3,53.2,29.74,South,180,2.0,4.0,42,0.00,,,0.00,meteohub,2013-06-05 02:09:00,
2013-06-04 19:14:00,77.5,52.7,29.75,East,90,2.0,4.0,42,0.00,,,0.00,meteohub,2013-06-05 02:14:00,
2013-06-04 19:20:00,77.0,52.9,29.75,SW,225,2.0,6.0,43,0.00,,,0.00,meteohub,2013-06-05 02:20:00,
2013-06-04 19:25:00,76.3,52.7,29.75,South,180,2.0,6.0,44,0.00,,,0.00,meteohub,2013-06-05 02:25:00,
2013-06-04 19:30:00,75.6,52.7,29.75,West,270,2.0,2.0,45,0.00,,,0.00,meteohub,2013-06-05 02:30:00,
2013-06-04 19:35:00,74.8,52.7,29.75,SE,135,2.0,2.0,46,0.00,,,0.00,meteohub,2013-06-05 02:35:00,
2013-06-04 19:40:00,73.9,51.8,29.76,East,90,2.0,3.0,46,0.00,,,0.00,meteohub,2013-06-05 02:40:00,
2013-06-04 19:46:00,73.0,52.2,29.75,South,180,2.0,4.0,48,0.00,,,0.00,meteohub,2013-06-05 02:46:00,
2013-06-04 19:51:00,72.3,52.2,29.76,West,270,4.0,4.0,49,0.00,,,0.00,meteohub,2013-06-05 02:51:00,
2013-06-04 19:56:00,71.6,52.0,29.76,SE,135,3.0,4.0,50,0.00,,,0.00,meteohub,2013-06-05 02:56:00,
2013-06-04 20:01:00,70.9,51.3,29.75,NW,315,2.0,4.0,50,0.00,,,0.00,meteohub,2013-06-05 03:01:00,
2013-06-04 20:07:00,70.3,51.4,29.76,SW,225,2.0,4.0,51,0.00,,,0.00,meteohub,2013-06-05 03:07:00,
2013-06-04 20:12:00,69.8,51.4,29.76,South,180,2.0,3.0,52,0.00,,,0.00,meteohub,2013-06-05 03:12:00,
2013-06-04 20:17:00,69.3,51.4,29.76,SW,225,2.0,4.0,53,0.00,,,0.00,meteohub,2013-06-05 03:17:00,
2013-06-04 20:22:00,68.9,51.6,29.76,East,90,2.0,4.0,54,0.00,,,0.00,meteohub,2013-06-05 03:22:00,
2013-06-04 20:27:00,68.4,51.1,29.76,South,180,3.0,5.0,54,0.00,,,0.00,meteohub,2013-06-05 03:27:00,
2013-06-04 20:32:00,68.0,51.3,29.76,SW,225,2.0,5.0,55,0.00,,,0.00,meteohub,2013-06-05 03:32:00,
2013-06-04 20:37:00,67.8,51.1,29.76,North,0,2.0,5.0,55,0.00,,,0.00,meteohub,2013-06-05 03:37:00,
2013-06-04 20:42:00,66.9,50.7,29.76,SW,225,1.0,4.0,56,0.00,,,0.00,meteohub,2013-06-05 03:42:00,
2013-06-04 20:47:00,66.6,50.9,29.76,SE,135,2.0,2.0,57,0.00,,,0.00,meteohub,2013-06-05 03:47:00,
2013-06-04 20:52:00,66.2,50.5,29.76,SW,225,2.0,4.0,57,0.00,,,0.00,meteohub,2013-06-05 03:52:00,
2013-06-04 20:57:00,66.0,50.9,29.76,NW,315,1.0,4.0,58,0.00,,,0.00,meteohub,2013-06-05 03:57:00,
2013-06-04 21:01:00,65.8,50.7,29.76,East,90,2.0,4.0,58,0.00,,,0.00,meteohub,2013-06-05 04:01:00,
2013-06-04 21:02:00,65.8,50.7,29.76,East,90,2.0,4.0,58,0.00,,,0.00,meteohub,2013-06-05 04:02:00,
2013-06-04 21:03:00,65.8,50.7,29.76,East,90,2.0,4.0,58,0.00,,,0.00,meteohub,2013-06-05 04:03:00,
2013-06-04 21:04:00,65.8,50.7,29.76,East,90,2.0,4.0,58,0.00,,,0.00,meteohub,2013-06-05 04:04:00,
2013-06-04 21:10:00,65.5,50.7,29.76,South,180,1.0,2.0,59,0.00,,,0.00,meteohub,2013-06-05 04:10:00,
2013-06-04 21:15:00,65.3,50.5,29.76,South,180,2.0,2.0,59,0.00,,,0.00,meteohub,2013-06-05 04:15:00,
2013-06-04 21:20:00,65.3,51.1,29.76,SE,135,2.0,3.0,60,0.00,,,0.00,meteohub,2013-06-05 04:20:00,
2013-06-04 21:25:00,65.1,50.9,29.77,SW,225,1.0,3.0,60,0.00,,,0.00,meteohub,2013-06-05 04:25:00,
2013-06-04 21:30:00,64.9,50.7,29.77,SW,225,2.0,2.0,60,0.00,,,0.00,meteohub,2013-06-05 04:30:00,
2013-06-04 21:35:00,64.8,51.1,29.77,SW,225,2.0,2.0,61,0.00,,,0.00,meteohub,2013-06-05 04:35:00,
2013-06-04 21:40:00,64.6,50.9,29.77,NE,45,2.0,4.0,61,0.00,,,0.00,meteohub,2013-06-05 04:40:00,
2013-06-04 21:46:00,64.4,50.7,29.77,East,90,1.0,4.0,61,0.00,,,0.00,meteohub,2013-06-05 04:46:00,
2013-06-04 21:51:00,64.2,50.9,29.77,South,180,2.0,4.0,62,0.00,,,0.00,meteohub,2013-06-05 04:51:00,
2013-06-04 21:56:00,64.0,50.7,29.77,East,90,1.0,2.0,62,0.00,,,0.00,meteohub,2013-06-05 04:56:00,
2013-06-04 22:01:00,64.0,50.7,29.78,North,0,1.0,2.0,62,0.00,,,0.00,meteohub,2013-06-05 05:01:00,
2013-06-04 22:06:00,64.0,50.7,29.78,North,0,1.0,2.0,62,0.00,,,0.00,meteohub,2013-06-05 05:06:00,
2013-06-04 22:12:00,63.5,51.4,29.78,East,90,1.0,2.0,65,0.00,,,0.00,meteohub,2013-06-05 05:12:00,
2013-06-04 22:17:00,63.7,51.3,29.78,North,0,0.0,2.0,64,0.00,,,0.00,meteohub,2013-06-05 05:17:00,
2013-06-04 22:22:00,63.5,51.1,29.78,South,180,2.0,2.0,64,0.00,,,0.00,meteohub,2013-06-05 05:22:00,
2013-06-04 22:27:00,63.5,51.1,29.78,South,180,2.0,2.0,64,0.00,,,0.00,meteohub,2013-06-05 05:27:00,
2013-06-04 22:32:00,63.1,50.7,29.78,South,180,1.0,2.0,64,0.00,,,0.00,meteohub,2013-06-05 05:32:00,
2013-06-04 22:37:00,63.3,51.4,29.78,NW,315,1.0,2.0,65,0.00,,,0.00,meteohub,2013-06-05 05:37:00,
2013-06-04 22:42:00,63.1,51.3,29.78,South,180,1.0,3.0,65,0.00,,,0.00,meteohub,2013-06-05 05:42:00,
2013-06-04 22:47:00,63.1,51.6,29.78,SE,135,2.0,3.0,66,0.00,,,0.00,meteohub,2013-06-05 05:47:00,
2013-06-04 22:53:00,63.1,51.6,29.78,SW,225,1.0,3.0,66,0.00,,,0.00,meteohub,2013-06-05 05:53:00,
2013-06-04 22:58:00,63.0,51.4,29.78,NW,315,1.0,2.0,66,0.00,,,0.00,meteohub,2013-06-05 05:58:00,
2013-06-04 23:03:00,63.0,51.4,29.79,NE,45,2.0,2.0,66,0.00,,,0.00,meteohub,2013-06-05 06:03:00,
2013-06-04 23:08:00,62.8,51.3,29.79,South,180,2.0,2.0,66,0.00,,,0.00,meteohub,2013-06-05 06:08:00,
2013-06-04 23:13:00,62.6,51.1,29.79,SW,225,1.0,2.0,66,0.00,,,0.00,meteohub,2013-06-05 06:13:00,
2013-06-04 23:18:00,62.6,51.4,29.79,West,270,2.0,2.0,67,0.00,,,0.00,meteohub,2013-06-05 06:18:00,
2013-06-04 23:23:00,62.8,51.6,29.79,South,180,2.0,2.0,67,0.00,,,0.00,meteohub,2013-06-05 06:23:00,
2013-06-04 23:29:00,62.2,51.1,29.79,NW,315,2.0,2.0,67,0.00,,,0.00,meteohub,2013-06-05 06:29:00,
2013-06-04 23:34:00,62.1,51.4,29.79,North,0,2.0,3.0,68,0.00,,,0.00,meteohub,2013-06-05 06:34:00,
2013-06-04 23:39:00,61.9,51.6,29.79,NW,315,3.0,3.0,69,0.00,,,0.00,meteohub,2013-06-05 06:39:00,
2013-06-04 23:44:00,61.9,51.6,29.79,South,180,2.0,3.0,69,0.00,,,0.00,meteohub,2013-06-05 06:44:00,
2013-06-04 23:49:00,61.5,51.3,29.79,SW,225,1.0,3.0,69,0.00,,,0.00,meteohub,2013-06-05 06:49:00,
2013-06-04 23:54:00,61.5,51.3,29.80,East,90,1.0,3.0,69,0.00,,,0.00,meteohub,2013-06-05 06:54:00,
2013-06-04 23:59:00,61.3,51.4,29.79,East,90,1.0,2.0,70,0.00,,,0.00,meteohub,2013-06-05 06:59:00,